SAMSAT-IONOSPHERE (RS7*)

Last updated on Fri May 09 2025 00:03:04 GMT+0000 (Coordinated Universal Time)

1 61784U 24199BB 25128.52133984 .00018009 00000+0 57604-3 0 9996 2 61784 97.3595 357.2093 0013447 313.5805 46.4319 15.32390085 75172
UTC large
Height (km)
Speed (km/s)
/
Latitude / Longitude
Inclination (degrees)
Orbital Period (minutes)
Azimuth
Elevation
Range (km)
Doppler Factor

Next 0 passes for location: London (51.5072 / 0.1276)

Sorry there are no passes over London.